    Orbital elements:
    2021 EB1                                                 Earth MOID = 0.0205 AU
    Epoch 2020 Dec. 17.0 TT = JDT 2459200.5                 Veres
    M 334.13890              (2000.0)            P               Q
    n   0.23282154     Peri.  212.88502     -0.87895493     +0.47656644
    a   2.6169009      Node   355.46333     -0.37362741     -0.71152922
    e   0.6548664      Incl.   13.12611     -0.29637946     -0.51634348
    P   4.23           H   23.5           G   0.15           U   6
    Residuals in seconds of arc
    210210 F52  0.0   0.1+    210306 K61  1.4+  0.5+    210306 595  0.2-  0.1-
    210210 F52  0.2-  0.2-    210306 K61  1.5+  0.6+    210306 246  0.0   0.1+
    210213 F51  0.2-  0.1+    210306 K61  1.5+  0.3+    210306 246  0.6-  0.1+
    210213 F51  0.1+  0.2-    210306 K61  1.5+  0.5+    210306 246  0.4-  0.3+
    210213 F51  0.1+  0.1+    210306 K61  1.3+  0.2+    210306 246  0.3-  0.1+
    210213 F51  0.0   0.0     210306 K61  1.4+  0.4+    210306 246  0.1+  0.0
    210306 703  1.0-  0.2-    210306 K61  1.4+  0.1-    210306 246  0.2+  0.2+
    210306 703  0.5-  0.7-    210306 K62  0.1+  0.1-    210306 246  0.1-  0.1-
    210306 703  0.1-  0.3-    210306 K62  0.6-  0.4-    210306 246  0.2-  0.3+
    210306 703  0.8-  0.8-    210306 A17  0.4-  0.2-    210306 246  0.0   0.1+
    210306 H36  0.5+  0.4+    210306 A17  0.4-  0.0     210306 246  0.6-  0.2+
    210306 H36  0.0   0.2-    210306 A17  0.6-  0.1-    210306 246  0.3-  0.2-
    210306 H36  0.0   0.4+    210306 K74  0.4-  0.0     210306 033  0.3-  0.0
    210306 H36  0.8+  0.2+    210306 K74  0.4-  0.1+    210306 033  0.2-  0.0
    210306 I52  0.6-  0.3-    210306 K74  0.5-  0.1-    210306 033  0.2-  0.0
    210306 I52  0.4-  0.2-    210306 K83  0.9-  0.4-    210306 033  0.2+  0.2+
    210306 I52  0.5-  0.1-    210306 K74  0.1-  0.3-    210306 K63  0.1-  0.1+
    210306 I52  0.4-  0.1-    210306 K83  0.1-  0.1-    210306 K63  0.3-  0.4-
    210306 K62  0.3-  0.1+    210306 K83  0.0   0.1+    210306 K63  0.1-  0.0
    210306 K62  0.1+  0.2-    210306 595  0.2-  0.3-
    210306 K61  1.0+  0.0     210306 595  0.1+  0.0
    
    Ephemeris:
    2021 EB1                 a,e,i = 2.62, 0.65, 13                  q = 0.9032
    Date    TT    R. A. (2000) Decl.     Delta      r    Elong.  Phase     V
    2021 02 05    10 43 21.7 +47 30 45   0.3008  1.2408   143.5    28.2    22.6
    ...
    2021 02 20    11 00 03.1 +52 49 41   0.1649  1.1153   137.1    37.1    21.3
    ...
    2021 02 28    11 25 04.7 +57 53 23   0.09739 1.0552   129.5    46.4    20.3
    ...
    2021 03 06    12 58 05.4 +66 41 12   0.04924 1.0147   116.1    61.4    19.2
    2021 03 07    13 49 00.9 +68 38 30   0.04184 1.0083   111.5    66.3    19.0
    2021 03 08    15 10 54.7 +69 28 09   0.03492 1.0022   105.0    73.0    18.8
    ...
    2021 03 14    21 10 56.2 -08 55 47   0.03228 0.9684    36.5   142.4    23.2
    ...
    2021 03 22    22 02 44.1 -35 40 43   0.09458 0.9331    46.0   129.8    23.9
    ...
    2021 04 06    22 30 06.4 -40 35 57   0.2217  0.9034    58.1   109.9    24.2
    
    M. P. C. Staff               (C) Copyright 2021 MPC           M.P.E.C. 2021-E42
    


    Read MPEC 2021-E41 Read MPEC 2021-E43


    MPEC number:

    Enter an MPEC number in one of the following forms:

    • 1997-B01 (the full form)
    • J97B01 (the packed version of the full form)
    • B01 (the abbreviated form)